Regional Weather Roundup
Issued by NWS

Home | Current Version | Previous Version | Graphics & Text | Print | Product List | Glossary On
Versions: 1 2 3 4 5 6 7 8 9 10 11 12 13 14 15 16 17 18 19 20 21 22 23 24 25 26 27 28 29 30 31 32 33 34 35 36 37 38 39 40 41 42 43 44 45 46 47 48 49 50
000
ASUS43 KOAX 271110
RWRNE

WEATHER ROUNDUP FOR NEBRASKA
NATIONAL WEATHER SERVICE OMAHA NE
500 AM CST THU NOV 27 2014

NOTES: SATELLITE DATA IS BEING USED TO AUGMENT CLOUD COVER ABOVE
       12000 FEET.
       "FAIR" INDICATES FEW OR NO CLOUDS BELOW 12,000 FEET WITH NO
       SIGNIFICANT WEATHER AND/OR OBSTRUCTIONS TO VISIBILITY.

  * THESE STATIONS DO NOT REPORT WEATHER SUCH AS RAIN...SNOW OR FOG.

NEZ001>004-019>022-054>056-271200-
NEBRASKA PANHANDLE

CITY           SKY/WX    TMP DP  RH WIND       PRES   REMARKS
SCOTTSBLUFF    CLOUDY    12   9  87 N3        30.19F
ALLIANCE       PTCLDY    18  17  96 S3        30.17F
CHADRON        PTCLDY   N/A N/A N/A CALM      30.17F
KIMBALL        CLOUDY    27  23  87 SW9       30.17F WCI  18
SIDNEY         PTCLDY    19  16  88 SW9       30.20F WCI   8
$$

NEZ057>060-069>072-079>082-271200-
SOUTHWEST NEBRASKA

CITY           SKY/WX    TMP DP  RH WIND       PRES   REMARKS
NORTH PLATTE   PTCLDY    22  16  78 E5        30.32R WCI  16
IMPERIAL       PTCLDY    24  19  81 S6        30.28F WCI  17
LEXINGTON      PTCLDY    22  17  81 E6        30.39R WCI  15
MCCOOK         PTCLDY    20  15  81 SE7       30.34F WCI  11
OGALLALA       CLEAR    N/A N/A N/A CALM      30.26F
$$

NEZ005>010-023>029-035>040-094-271200-
NORTH CENTRAL NEBRASKA

CITY           SKY/WX    TMP DP  RH WIND       PRES   REMARKS
VALENTINE      CLOUDY    23  17  78 SE8       30.29F WCI  14
AINSWORTH      CLOUDY    21  16  81 SE9       30.30F WCI  11
BROKEN BOW     CLOUDY    23  16  74 S7        30.36S WCI  15
O`NEILL        CLOUDY    16   9  74 E6        30.41S WCI   7
ORD            CLOUDY    19  14  81 SE5       30.39S WCI  12
THEDFORD       CLOUDY    28  22  78 S13       30.28F WCI  18
$$

NEZ041-046>049-061>064-073>077-083>087-271200-
SOUTH CENTRAL NEBRASKA

CITY           SKY/WX    TMP DP  RH WIND       PRES   REMARKS
GRAND ISLAND   CLOUDY    19  12  74 E3        30.44R
AURORA         CLOUDY    19  11  70 CALM      30.44R
HASTINGS       CLOUDY    20  14  77 SE5       30.41F WCI  13
HEBRON         CLOUDY    18  11  74 CALM      30.48R
HOLDREGE       PTCLDY    19  15  82 CALM      30.39F
KEARNEY *      CLOUDY    19  14  79 CALM      30.43R
YORK           MOCLDY    16  10  79 CALM      30.44R
$$

NEZ011>018-030>034-042>045-271200-
NORTHEAST NEBRASKA

CITY           SKY/WX    TMP DP  RH WIND       PRES   REMARKS
NORFOLK        MOCLDY    15   8  73 NE5       30.45S WCI   8
ALBION         PTCLDY    16   7  67 CALM      30.44R
BLAIR          CLOUDY    17  11  77 N9        30.47F WCI   6
COLUMBUS *     CLOUDY    18   5  57 NE7       30.47R WCI   8
FREMONT        MOCLDY    15  12  86 CALM      30.48F
TEKAMAH        CLOUDY    15   8  73 N12       30.51S WCI   2
WAYNE          CLOUDY    14   9  80 N5        30.48S WCI   6
$$

NEZ050>053-065>068-078-088>093-271200-
SOUTHEAST NEBRASKA

CITY           SKY/WX    TMP DP  RH WIND       PRES   REMARKS
LINCOLN        CLEAR     13   8  81 NE6       30.49F WCI   4
OMAHA EPPLEY   MOCLDY    17  12  80 N13       30.52S WCI   4
BEATRICE       CLEAR     15  11  84 NE3       30.47S
FALLS CITY     CLOUDY    22  16  78 N6        30.49S WCI  14
NEBRASKA CITY  CLEAR     15  10  80 N8        30.49S WCI   5
PLATTSMOUTH    CLEAR     14  10  85 NW6       30.49S WCI   5
$$

NEZ044-045-051>053-067-271200-
OMAHA AREA

CITY           SKY/WX    TMP DP  RH WIND       PRES   REMARKS
OMAHA EPPLEY   MOCLDY    17  12  80 N13       30.52S WCI   4
BLAIR          CLOUDY    17  11  77 N9        30.47F WCI   6
FREMONT        MOCLDY    15  12  86 CALM      30.48F
MILLARD        CLEAR     17  11  78 CALM      30.50F
OFFUTT AFB     CLEAR     15  10  80 N1        30.50R
PLATTSMOUTH    CLEAR     14  10  85 NW6       30.49S WCI   5
WAHOO          CLOUDY    16  11  80 CALM      30.48F
$$


USA.gov is the U.S. government's official web portal to all federal, state and local government web resources and services.